COSMOS 252 DEB, 3785

Orbit data source: Space-Track

COSMOS 252 DEB, 3785 is space debris in LEO originally from a launch on Fri, 01 Nov 1968 UTC launched from the Tyuratam Missile And Space Complex (TTMTR). Debris objects in space refer to the collection of defunct objects orbiting the Earth. Examples of debris include non-operational satellites, rocket bodies, and fragments generated from explosions, collisions, or faulty payload assembly.

Loading next visibility...
Identifier
3785, 1968-097AX
Orbit
LEO
Country
Flag of CISCIS
Related business
Manufacturer
Unknown
Mission
Spacecraft
Bus & Motor
Unknown
Mass
Unknown
Launch date (UTC)
1968-11-01 (58 years ago)
Launch vehicle
Unknown
Launch site
Tyuratam Missile And Space Complex (TTMTR)
Object type
Payload
Rocket body
Debris
Shape & HBR
Unknown shape, 0.1 m
Radar Cross Section
Medium (>0.1 m² and <1 m²)

Expand to show TLE details & history
Last TLE update: 15 hours ago

TLE from 15 hours ago
0 COSMOS 252 DEB
1 03785U 68097AX  26247.99724497  .00000617  00000-0  81464-3 0  9995
2 03785  62.2508 102.2849 0791220  87.8170 281.3113 12.79233170566557
Epoch: 2026-09-04T23:56Z
TLE epoch observation values (Epoch: 2026-09-04T23:56:01.965Z)
Latitude
-0.00003°
Longitude
119.16365°
Altitude
1,273.718 km
Speed
7.253 km/s
True Right ascension
06h 49m 08s
True Declination
0° 00' 00"
Sunlit
Object was in daylight at epoch
Visualization orbit readout
Latitude
Unknown
Longitude
Unknown
Altitude
Unknown
Speed
Unknown
Apparent Right ascension
Unknown
Apparent Declination
Unknown
Sunlit
N/A
Visualization observer readout
Local Sidereal Time
06:51:16
Azimuth
Unknown
Elevation
Unknown
Doppler factor
Unknown
Orbital elements
Apogee altitude
1,954.509 km
Perigee altitude
732.598 km
Semi-major axis
7,721.69 km
Eccentricity
0.07912
Inclination
62.2508°
RAAN
102.2849°
Arg. of periapsis
87.817°
True anomaly
272.28256°
Mean anomaly
281.3113°
Eccentric anomaly
276.80993°
Mean motion
3.19871 °/min
Orbital period
112.55 mins
BSTAR
0.00081464
Loading maneuver chart data...
Computing Atmospheric mass density...
Loading historical data...
Loading historical data...
Loading historical data...
Loading historical data...
Loading historical data...
Loading historical data...
Loading historical data...

Documentation

Showing up to 5 results
|